Location: Newark
(48.2543°N, 0.4968°W)
Time: 01:20:02
(UTC+00:00)

Envisat - Visible Passes

Search period start: 15 October 2019 00:00
Search period end: 25 October 2019 00:00
Orbit: 764 x 766 km, 98.1° (Epoch: 14 October)

Date Brightness Start Highest point End Pass type
(mag) Time Alt. Az. Time Alt. Az. Time Alt. Az.
15 Oct 5.0 18:58:02 10° SSW 19:02:26 29° W 19:06:52 10° NNW visible
16 Oct 6.7 05:26:27 10° ENE 05:27:25 10° E 05:28:22 10° E visible
16 Oct 3.6 18:20:27 10° S 18:25:28 60° W 18:30:31 10° NNW visible
17 Oct 3.0 17:43:39 10° SSE 17:48:41 68° ENE 17:53:45 10° N visible
17 Oct 5.8 19:24:48 10° SW 19:28:13 18° W 19:31:39 10° NW visible
18 Oct 6.1 05:49:49 10° NE 05:53:17 18° E 05:56:44 10° SE visible
18 Oct 4.6 18:46:27 10° SSW 18:51:05 36° W 18:55:47 10° NNW visible
19 Oct 3.3 18:09:06 10° S 18:14:10 74° WSW 18:19:17 10° NNW visible
19 Oct 6.3 19:53:22 10° W 19:54:06 10° W 19:54:50 10° WNW visible
20 Oct 3.1 17:32:31 10° SSE 17:37:27 55° ENE 17:42:26 10° N visible
20 Oct 5.5 19:12:55 10° SW 19:16:49 22° W 19:20:45 10° NW visible
21 Oct 6.3 05:39:05 10° NE 05:41:53 15° E 05:44:39 10° ESE visible
21 Oct 4.2 18:34:55 10° S 18:39:46 44° W 18:44:38 10° NNW visible
22 Oct 3.0 17:57:49 10° SSE 18:02:54 90° N 18:08:01 10° NNW visible
22 Oct 6.1 19:40:18 10° WSW 19:42:39 13° W 19:45:02 10° WNW visible
23 Oct 5.1 19:01:10 10° SSW 19:05:27 27° W 19:09:45 10° NW visible
24 Oct 6.5 05:28:43 10° ENE 05:30:27 12° E 05:32:09 10° ESE visible
24 Oct 3.8 18:23:29 10° S 18:28:27 55° W 18:33:27 10° NNW visible
